Карточка аэропорта ULPB

Внимание!
Информация на этой странице в стадии наполнения.
Если вы не увидели какой-то информации, или заметили неточность - пожалуйста сообщите нам!
Спасибо!
Команда RU-STAFF
Название аэропортаБесовец
Название аэропорта (англ.)Besovets
Превышение151 ft. (46 m.)
Координаты61°53.07', 34°9.258'
Высота перехода900
Эшелон перехода070
Коды ответчика1000
Зона ОрВДСанкт-Петербург РПИ (ULLL)
Данные METARULPB 271200Z VRB01MPS 2400 -SN BKN020 M07/M08 Q1001 RESN R19/490245 NOSIG RMK QFE747/0996
Проноз погоды (TAF)NODATA
NOTAMshow/hide NOTAM
AWOS   TABLE

Информация о ВПП


Диспетчерские позиции

Позывной Наименование органа УВД Частота
ULPB_APPПетрозаводск-Вышка128.000



Спутниковое изображение